Location: Fort Collins
(40.5850°N, 105.0840°W)
Time: 08:33:41
(UTC-07:00)

Cosmos 2297 Rocket - Visible Passes

Search period start: 06 February 2016 00:00
Search period end: 16 February 2016 00:00
Orbit: 839 x 844 km, 71.0° (Epoch: 05 February)

Date Brightness Start Highest point End Pass type
(mag) Time Alt. Az. Time Alt. Az. Time Alt. Az.
06 Feb 4.0 03:57:53 25° NNE 03:57:53 25° NNE 04:00:07 10° NNE visible
06 Feb 3.7 05:39:44 17° NW 05:39:44 17° NW 05:42:52 10° N visible
07 Feb 4.4 03:43:34 19° NNE 03:43:34 19° NNE 03:45:02 10° NNE visible
07 Feb 3.8 05:25:24 17° NNW 05:25:24 17° NNW 05:27:53 10° N visible
08 Feb 4.7 03:29:09 14° NNE 03:29:09 14° NNE 03:29:57 10° NNE visible
08 Feb 4.0 05:10:58 16° NNW 05:10:58 16° NNW 05:12:53 10° N visible
09 Feb 4.9 03:14:40 11° NNE 03:14:40 11° NNE 03:14:52 10° NNE visible
09 Feb 4.1 04:56:30 15° NNW 04:56:30 15° NNW 04:57:54 10° N visible
10 Feb 4.3 04:41:57 13° NNW 04:41:57 13° NNW 04:42:54 10° N visible
11 Feb 4.5 04:27:22 12° N 04:27:22 12° N 04:27:54 10° N visible
12 Feb 4.6 04:12:44 11° N 04:12:44 11° N 04:12:54 10° N visible
